Location: Unspecified
(0.0000°N, 0.0000°E)
Time: 16:44:37
(UTC+00:00)

N. Korean satellite - Pass Details

Date: 22 March 2019
Orbit: 457 x 508 km, 97.2° (Epoch: 22 May)

Event Time Altitude Azimuth Distance (km) Brightness Sun altitude
Rises 04:53:35 0° 47° (NE) 2,557 11.0 -18.4°
Reaches altitude 10° 04:56:55 10° 81° (E) 1,693 10.6 -17.5°
Maximum altitude 04:58:11 12° 102° (ESE) 1,605 10.4 -17.2°
Drops below altitude 10° 04:59:27 10° 122° (ESE) 1,704 10.2 -16.9°
Sets 05:02:50 0° 156° (SSE) 2,601 10.6 -16.1°
